Regional Weather Roundup
Issued by NWS

Home | Current Version | Previous Version | Graphics & Text | Print | Product List | Glossary On
Versions: 1 2 3 4 5 6 7 8 9 10 11 12 13 14 15 16 17 18 19 20 21 22 23 24 25 26 27 28 29 30 31 32 33 34 35 36 37 38 39 40 41 42 43 44 45 46 47 48 49 50
000
ASUS43 KLOT 292304
RWRIL

ILLINOIS REGIONAL WEATHER ROUNDUP
NATIONAL WEATHER SERVICE CHICAGO/ROMEOVILLE IL
600 PM CDT FRI JUL 29 2016

NOTE: "FAIR" INDICATES FEW OR NO CLOUDS BELOW 12,000 FEET WITH NO
SIGNIFICANT WEATHER AND/OR OBSTRUCTIONS TO VISIBILITY.

* THESE STATIONS ARE NOT UNDER NWS QUALITY CONTROL. THEY ALSO MAY NOT
  REPORT WEATHER SUCH AS PRECIPITATION OR FOG.

ILZ001-002-007-009-015-016-024-300000-
NORTHWEST ILLINOIS

CITY           SKY/WX    TMP DP  RH WIND       PRES   REMARKS
MOLINE         CLOUDY    75  69  81 E9        29.92R
STERLING*      LGT RAIN  71  69  93 E5        29.95R
SAVANNA*       PTSUNNY   76  68  77 NE13      29.94R
$$

ILZ003-004-008-010-011-017-018-300000-
NORTH CENTRAL ILLINOIS

CITY           SKY/WX    TMP DP  RH WIND       PRES   REMARKS
ROCKFORD       LGT RAIN  71  68  90 N12       29.96S
FREEPORT*      CLOUDY    72  67  82 NE14G22   29.97R
ROCHELLE*      CLOUDY    72  69  91 NE12      29.94R
DE KALB*       CLOUDY    73  69  87 NE12      29.96R
$$

ILZ005-006-012>014-019>023-300000-
NORTHEAST ILLINOIS

CITY           SKY/WX    TMP DP  RH WIND       PRES   REMARKS
CHICAGO-OHARE  CLOUDY    73  69  87 NE12      29.93S
CHICAGO-MIDWAY CLOUDY    74  67  78 NE6       29.92S
AURORA         CLOUDY    74  69  85 E8        29.93R
LANSING*       LGT RAIN  70  67  88 E7        29.92F
WAUKEGAN       LGT RAIN  71  67  87 NE10      29.95R
DUPAGE AIRPORT CLOUDY    74  68  81 NE14      29.93S
KANKAKEE*      CLOUDY    70  66  87 NE9       29.93R
WHEELING       CLOUDY    73  68  84 NE7       29.95R
MORRIS*        LGT RAIN  72  69  90 CALM      29.92S
NORTHERLY ISL    N/A     72  66  81 NE7         N/A
$$

LMZ740>746-300000-
SOUTHERN LAKE MICHIGAN

STATION/POSITION SKY/WX   TEMP    WIND        PRES    VSBY  WAVE
                          AIR SEA DIR/SP/G                  HT/PER
                          (F)     (DEG/KT/KT) (MB)    (MI)  (FT/S)
SOUTHERN BUOY              73 74   60/ 16/ 19 1012.9          3/ 6
WILMETTE HARBOR            73 73   60/ 14/ 17   N/A           4/ 5
HARRISON CRIB              73     130/ 13/ 15   N/A
BURNHAM HARBOR             72      30/  6/ 15   N/A
CALUMET HARBOR             70                 1013.2R
BURNS HARBOR               72     170/  1/ 16 1013.9R
MICHIGAN CITY              69     120/  4/  5   N/A
MICHIGAN CITY 6N           70 77   50/  2/  8   N/A           2/ 5
ST. JOSEPH                 73 76  100/ 12/ 16 1013.3R         2
$$

ILZ025>027-034>036-040-047-049-050-058-095>099-300000-
WEST-CENTRAL ILLINOIS

CITY           SKY/WX    TMP DP  RH WIND       PRES   REMARKS
QUINCY         SUNNY     79  68  69 NW14      29.94S HX  81
GALESBURG*     MOSUNNY   79  68  68 W7        29.93S HX  81
MACOMB*        PTSUNNY   76  66  69 W10       29.96S
JACKSONVILLE*  MOSUNNY   80  68  65 NW8       29.93R HX  82
PITTSFIELD*    MOSUNNY   79  69  71 NW5       29.94S HX  82
$$

ILZ028>032-037-038-041>044-048-051>054-059>061-300000-
CENTRAL ILLINOIS

CITY           SKY/WX    TMP DP  RH WIND       PRES   REMARKS
BLOOMINGTON    MOSUNNY   80  66  62 NW7       29.93R HX  82
DECATUR        PTSUNNY   81  67  62 W6        29.92R HX  83
PEORIA         MOSUNNY   80  67  64 W8        29.92R HX  82
LACON*         PTSUNNY   80  69  67 W8        29.90R HX  83
LINCOLN*       MOSUNNY   82  68  62 W6        29.92R HX  84
SPRINGFIELD    MOSUNNY   80  67  64 NW8       29.92R HX  82
TAYLORVILLE    MOSUNNY   80  69  70 MISG      29.92S HX  83
$$

ILZ033-039-045-046-055>057-062-063-300000-
EAST-CENTRAL ILLINOIS

CITY           SKY/WX    TMP DP  RH WIND       PRES   REMARKS
CHAMPAIGN      SUNNY     80  68  66 W7        29.92R HX  83
MATTOON        MOSUNNY   81  65  58 W13       29.91R HX  83
PARIS*         MOSUNNY   82  71  69 CALM      29.91S HX  85
$$

ILZ079-100>102-300000-
SOUTHWEST ILLINOIS

CITY           SKY/WX    TMP DP  RH WIND       PRES   REMARKS
BELLEVILLE     CLOUDY    85  71  62 VRB3      29.89F HX  91
CAHOKIA*       PTSUNNY   86  67  52 E3        29.90F HX  89
SPARTA*        CLOUDY    82  72  72 NE5       29.92F HX  86
$$

ILZ064>066-069>071-074>076-080>082-084>086-088>090-092>094-300000-
SOUTH-CENTRAL ILLINOIS

CITY           SKY/WX    TMP DP  RH WIND       PRES   REMARKS
CARBONDALE     PTSUNNY   78  73  84 VRB3      29.92S HX  81
CAIRO*         TSTM      76  70  79 S10G18    29.91R
EFFINGHAM*     CLOUDY    80  69  70 W9        29.93S HX  83
MARION         CLOUDY    81  73  78 NE6       29.92F HX  85
MT. VERNON     CLOUDY    82  70  65 CALM      29.91F HX  86
CENTRALIA*     CLOUDY    83  72  69 N7        29.91F HX  88
SALEM*         CLOUDY    83  71  66 NW3       29.92F HX  88
METROPOLIS*    PTSUNNY   80  73  78 N5        29.92S HX  84
$$

ILZ067-068-072-073-078-083-087-091-300000-
SOUTHEAST ILLINOIS

CITY           SKY/WX    TMP DP  RH WIND       PRES   REMARKS
LAWRENCEVILLE  CLOUDY    81  73  76 SW8         N/A  HX  86
FLORA*         CLOUDY    82  71  68 NW6       29.91F HX  87
FAIRFIELD*     MOSUNNY   80  74  82 CALM      29.90F HX  84
HARRISBURG*    CLOUDY    80  74  83 CALM      29.91F HX  84
ROBINSON*      CLOUDY    82  71  71 W5        29.90F HX  86
CARMI*         MOSUNNY   79  73  81 CALM      29.90F HX  82
$$

ABBREVIATIONS USED IN REMARKS
   TC - TEMPERATURE IN CELSIUS
  WCI - WIND CHILL INDEX
   HX - HEAT INDEX
  VSB - VISIBILITY
$$





USA.gov is the U.S. government's official web portal to all federal, state and local government web resources and services.